Narrowsburg, New York
Current Conditions -  °F | °C
As of 12:35 AM on Monday 22 Dec 2014 (Local Time) from KMSV Reporting Station
Overcast Overcast  
Wind Chill: 28°   Ceiling: 2300
Heat Index: 28°   Visibility: 10mi
Dew Point: 27°   Wind: 3mph
Humidity: 93%   Direction: 100°E
Pressure: 30.29"   Gusts: NA
Location:  41.61°N, 75.06°W
Report Text: KMSV 220535Z AUTO 10003KT 10SM OVC023 M02/M03 A3029 RMK AO1
Loading
Personal Weather Stations






























Interactive Weather Map New forecast layout! Learn more

10-Day Weather Forecast

Advertisements
Track Severe Weather on mobile